Dauntless Aviation
Greetings, Guest! To participate, [sign up for a free account] or [log in]
Airports North America Canada
CYLW
YLW

Kelowna International Airport

Kelowna, BC, CANADA

Airport Info
Edit

Location

Latitude / Longitude: 49°53'0"N / 119°29'35"W
  49°53.016'N / 119°29.598'W
  49.8836 / -119.4933

Nearby radio navigation aids

EX RUTLAND NDB. 335.5° 1.0nm from EX to field.
LW KELOWNA NDB. 147.1° 6.5nm from LW to field.

Runway Information

Runway 16 /34

Dimensions: 7300 x 200 ft.
Surface: ASP
 
Runway 16
Runway 34
Latitude: 49.966 49.946278
Longitude: -119.378961 -119.376461
Elevation: 1409 ft. 1409 ft.
Runway true heading: 166.6 346.6
 

Instrument Procedures

  Aerodrome Chart
  Parking Areas
  CAC: Aerodrome Chart
  CAC: Parking Areas - Apron I
  CAC: Parking Areas - Apron III

IAPs (Instrument Approach Procedures)

  CFS: KELOWNA VFR Terminal Procedures Chart
  CFS: KELOWNA VFR Terminal Procedures Chart - Night Circuit Procedure
  CFS: Aerodrome Information
  CFS: Aerodrome Information (Part 2)
  DATBO ONE ARR (DATBO.DATBO 1)
  LENUR ONE ARR (LENUR.LENUR 1)
  RNAV (GNSS) A
  NDB B (GNSS)
  ILS/DME 1 Rwy 16
  Night Circuit Procedures
  KELOWNA FIVE DEP (YLW 5.)

Departure Procedures

  Departure Procedure
Satellite photo at:
Airport distance calculator
From:
Weather Reports

METAR

CYLW

CYLW 282001Z AUTO 00000KT 6SM BR OVC010 02/02 A3042 RMK SLP322
CWUS
20.0nm S
CWUS 282000Z AUTO 10001KT 01/01 RMK AO1 SLP319 T00100007 50007
CWJV
21.6nm N
CWJV 282000Z AUTO 09002KT 02/01 RMK AO1 SLP317 T00170011 51011
CYYF
25.3nm S
CYYF 282000Z 20003KT 8SM OVC006 02/01 A3044 RMK ST8 VIS N 4 SLP322

TAF

CYLW
TAF CYLW 281838Z 2819/2907 VRB03KT 2SM BR SCT002 OVC006 TEMPO 2819/2822 6SM BR FEW002 SCT006 OVC012 FM282200 VRB03KT P6SM SCT009 OVC015 TEMPO 2822/2903 3SM BR OVC009 FM290300 VRB03KT 2SM BR SCT002 OVC006 TEMPO 2903/2906 6SM BR FEW002 SCT006 OVC012 RMK FCST BASED ON AUTO OBS. NXT FCST BY 290100Z
CYYF
25.3nm S
TAF CYYF 281838Z 2819/2907 36005KT P6SM OVC004 TEMPO 2819/2907 SCT004 OVC010 RMK NXT FCST BY 290100Z
Safelog

 

Dauntless Aviation

© 2007-2015 Dauntless Aviation, all rights reserved
Information provided via PilotNav comes from a variety of official and unofficial data sources. As errors are possible, do not use PilotNav for primary flight planning purposes. Verify any information that you receive via PilotNav with current and canonical charts and other official documents. The material in this database is subject to database copyrights held by Dauntless Aviation and may not be copied without the express permission of Dauntless Aviation - licenses for use of part of all of this data are available for purchase; enquire via the Dauntless Aviation helpdesk. A number of mechanisms and markers exist in the database to protect against and identify infringement / copyright. Automated queries against this website are stictly prohibited, and all activity is logged and analyzed.